Weather Roundup
Issued by NWS

Home | Current Version | Previous Version | Text Only | Print | Product List | Glossary On
Versions: 1 2 3 4 5 6 7 8 9 10 11 12 13 14 15 16 17 18 19 20 21 22 23 24 25 26 27 28 29 30 31 32 33 34 35 36 37 38 39 40 41 42 43 44 45 46 47 48 49 50
000
NZUS93 KARX 220759
HRRWXR

CURRENT HOURLY OBSERVATIONS ACROSS
MUCH OF THE UPPER MISSISSIPPI VALLEY
NATIONAL WEATHER SERVICE LA CROSSE WI
200 AM CST MON DEC 22 2014


...SOUTHEAST MINNESOTA...


CITY           SKY/WX    TMP DP  RH WIND       PRES   REMARKS
ROCHESTER      CLOUDY    35  34  96 S17       29.74F FOG     WCI  25
ROCHESTER/MAYO CLOUDY    35  35  98 SE13G22   29.74F WCI  27
WINONA         CLOUDY    37  36  93 S5        29.80F FOG     WCI  34
AUSTIN         LGT RAIN  36  36 100 S12G17    29.72S WCI  27
ALBERT LEA     CLOUDY    37  37 100 SE15      29.69F FOG     WCI  28
DODGE CENTER   DRIZZLE   36  36 100 S17       29.71F WCI  25
PRESTON        CLOUDY    34  33  96 S16       29.76F FOG     WCI  24
OWATONNA       CLOUDY    37  36  93 SE15      29.69F FOG     WCI  28
FARIBAULT      CLOUDY    39  37  93 SE12G22   29.69F WCI  32
$$

...ELSEWHERE IN MINNESOTA...


CITY           SKY/WX    TMP DP  RH WIND       PRES   REMARKS
MINNEAPOLIS    LGT RAIN  38  36  92 S10       29.70F FOG     WCI  31
INTNL FALLS    CLOUDY    33  31  92 SE6       29.65F FOG     WCI  28
DULUTH         LGT SNOW  35  33  92 S9        29.70S FOG     WCI  28
RED WING       CLOUDY    37  36  93 S13G18    29.74S FOG     WCI  29
REDWOOD FALLS  CLOUDY    38  37  97 S17       29.59S FOG     WCI  28
MANKATO        CLOUDY    39  34  81 S16       29.65F WCI  30
WORTHINGTON    CLOUDY    39 -11  11 S17       29.56F WCI  30
FAIRMONT       CLOUDY    39  36  87 S16       29.63F WCI  30
$$

...SOUTHWEST WISCONSIN...


CITY           SKY/WX    TMP DP  RH WIND       PRES   REMARKS
LA CROSSE      CLOUDY    38  33  82 S13       29.83S WCI  30
PRAIRIE DU CHI CLOUDY    36  31  82 SE8       29.85S WCI  30
BOSCOBEL       CLOUDY    37  31  78 VRB6      29.87F WCI  32
LONE ROCK      NOT AVBL
PLATTEVILLE    CLOUDY    35  32  90 SE13      29.87F WCI  26
FORT MC COY    CLOUDY    36  32  87 SE14      29.85S WCI  27
CAMP DOUGLAS   CLOUDY    34  34 100 SE7       29.86F WCI  28
VIROQUA        CLOUDY    33  33 100 SE12G18   29.83S WCI  25
WIS DELLS      NOT AVBL
$$

...ELSEWHERE IN WISCONSIN...


CITY           SKY/WX    TMP DP  RH WIND       PRES   REMARKS
MILWAUKEE      CLOUDY    34  28  79 S8        29.98F WCI  27
MADISON        CLOUDY    35  29  78 S14       29.91S WCI  26
GREEN BAY      CLOUDY    35  31  85 S10       29.95S WCI  27
EAU CLAIRE     NOT AVBL
BLACK RVR FLS  CLOUDY    36  34  92 SE6       29.83F FOG     WCI  31
MEDFORD        MIX PCPN  32  32  99 S12       29.82S WCI  23
WAUSAU         LGT SNOW  33  31  92 SE10      29.86S FOG     WCI  25
WIS RAPIDS     CLOUDY    35  30  82 S8        29.88F WCI  29
MARSHFIELD     LGT SNOW  34  32  92 S10       29.84S FOG     WCI  26
RICE LAKE      MIX PCPN  33  33  99 SE8       29.77F WCI  26
$$

...NORTHEAST IOWA...


CITY           SKY/WX    TMP DP  RH WIND       PRES   REMARKS
DECORAH        CLOUDY    36  36 100 S13       29.79S FOG     WCI  27
MASON CITY     CLOUDY    37  37 100 SE15      29.72F FOG     WCI  28
CHARLES CITY   CLOUDY    36  36 100 SE16      29.76F FOG     WCI  26
OELWEIN        CLOUDY    36  36 100 SE15      29.80F FOG     WCI  26
$$

...ELSEWHERE IN IOWA...


CITY           SKY/WX    TMP DP  RH WIND       PRES   REMARKS
DES MOINES     DRIZZLE   42  38  85 S14       29.72F FOG
IOWA CITY      CLOUDY    36  33  89 SE9       29.85F WCI  29
FORT DODGE     CLOUDY    39  37  93 SE13G18   29.67F WCI  32
$$

...NORTHERN ILLINOIS...


CITY           SKY/WX    TMP DP  RH WIND       PRES   REMARKS
CHICAGO-OHARE  CLOUDY    32  27  81 SE10      29.99R WCI  24
CHICAGO-MIDWAY CLOUDY    34  27  75 S8        30.00S WCI  27
MOLINE         CLOUDY    36  31  82 S14       29.87F WCI  27
ROCKFORD       LGT RAIN  33  30  88 S13       29.96S FOG     WCI  24
PEORIA         CLOUDY    38  30  73 SE8       29.93F WCI  32
$$

NOTE: "FAIR" INDICATES FEW OR NO CLOUDS BELOW 12,000 FEET WITH NO
SIGNIFICANT WEATHER AND/OR OBSTRUCTIONS TO VISIBILITY. WIND
SPEEDS ARE IN MILES-PER-HOUR.



USA.gov is the U.S. government's official web portal to all federal, state and local government web resources and services.